空港情報

日本の空港の気象及び、管制情報です。
気象情報はより詳細な情報が取得できる「AVIATION WEATER CENTER」 から取得しているため、VATSIMの気象情報と若干のタイムラグが生じることがあります。

VRCのフィールド設定用空港一覧はこちらをご覧ください。

RJCG Sapporo Control

RJCW / Wakkanai

NO RADAR

RADIO

08/26 2200x45

民間 civil

過去5時間に発表されたMETARがありません。

RJER / Rishiri

NO RADAR

REMOTE

25/07 1800x45

民間 civil

過去5時間に発表されたMETARがありません。

RJEB / Monbetsu

NO RADAR

REMOTE

32/14 2000x45

民間 civil

過去5時間に発表されたMETARがありません。

RJCM / Memanbetsu

NO RADAR

TOWER

36/18 2500x45

民間 civil

過去5時間に発表されたMETARがありません。

RJEC / Asahikawa

NO RADAR

TOWER

34/16 2500x60

民間 civil

過去5時間に発表されたMETARがありません。

RJCN / Nakashibetsu

NO RADAR

RADIO

08/26 2000x45

民間 civil

過去5時間に発表されたMETARがありません。

RJCK / Kushiro

NO RADAR

TOWER

17/35 2500x45

民間 civil

過去5時間に発表されたMETARがありません。

RJCO / Sapporo

RJCO_APP

TOWER

14/32 1500x30

共用 dual

過去5時間に発表されたMETARがありません。

RJCJ / Chitose

RJCC_APP

TOWER

36R/18L 3000x60
36L/18R 2700x45

自衛隊 military

過去5時間に発表されたMETARがありません。

RJCC / NewChitose
IMC

RJCC_APP

TOWER

01L/19R 3000x60
01R/19L 3000x60

民間 civil

0100

000@1KT

29.76

RJCC 221900Z VRB01KT 0100 R19R/0225V0500D R19L/0400V0700D FG VV001 11/11 Q1008 RMK A2978

RJCB / Obihiro

NO RADAR

TOWER

35/17 2500x45

民間 civil

過去5時間に発表されたMETARがありません。

RJEO / Okushiri

NO RADAR

REMOTE

12/30 1500x45

民間 civil

過去5時間に発表されたMETARがありません。

RJCH / Hakodate

RJCH_APP

TOWER

12/30 3000x45

民間 civil

過去5時間に発表されたMETARがありません。

RJSA / Aomori

NO RADAR

TOWER

24/06 3000x60

民間 civil

過去5時間に発表されたMETARがありません。

RJSO / Ominato
VMC

RJSM_APP

TOWER

04/22 600x45

自衛隊 military

5000

040@5KT

29.76

RJSO 221827Z 04005KT 5000 BR SCT002 BKN080 12/12 Q1008 RMK 4ST002 7AC080 A2978

RJSM / Misawa
IMC

RJSM_APP

TOWER

10/28 3050x45

共用 dual

0100

000@2KT

29.76

RJSM 221900Z VRB02KT 0100 R10/0250N FG BKN000 BKN001 BKN003 11/11 Q1008

RJSH / Hachinohe
IMC

RJSM_APP

TOWER

25/07 2250x45

自衛隊 military

0300

290@3KT

29.73

RJSH 221848Z 29003KT 0300 R25/0300V0550N FG BKN001 OVC005 12/12 Q1007 RMK 5ST001 8ST005 A2976 R0400

RJSK / Akita

NO RADAR

TOWER

10/28 2500x60

民間 civil

過去5時間に発表されたMETARがありません。

RJSI / Hanamaki

NO RADAR

RADIO

20/02 2500x45

民間 civil

過去5時間に発表されたMETARがありません。

RJSR / Odate-Noshiro

NO RADAR

REMOTE

11/29 2000x45

民間 civil

過去5時間に発表されたMETARがありません。

RJTG Tokyo Control

RJSY / Shonai

NO RADAR

RADIO

09/27 2000x45

民間 civil

過去5時間に発表されたMETARがありません。

RJSC / Yamagata

NO RADAR

RADIO

01/19 2000x45

民間 civil

過去5時間に発表されたMETARがありません。

RJST / Matsushima

RJSS_APP

TOWER

07/25 2071x46
15/33 1500x46

自衛隊 military

過去5時間に発表されたMETARがありません。

RJSS / Sendai

RJSS_APP

TOWER

27/09 3000x45
12/30 1200x45

民間 civil

過去5時間に発表されたMETARがありません。

RJSD / Sado

NO RADAR

REMOTE

10/28 890x25

民間 civil

過去5時間に発表されたMETARがありません。

RJSN / Niigata

RJSN_APP

TOWER

10/28 2500x45
04/22 1314x45

民間 civil

過去5時間に発表されたMETARがありません。

RJSF / Fukushima

NO RADAR

RADIO

01/19 2500x60

民間 civil

過去5時間に発表されたMETARがありません。

RJAH / Ibaraki/Hyakuri
VMC

RJAH_APP

TOWER

03L/21R 2700x45
03R/21L 2700x45

共用 dual

9999

070@7KT

29.73

RJAH 221900Z 07007KT 9999 FEW030 BKN070 14/14 Q1007 RETS

RJTT / Tokyo
VMC

RJTT_APP

TOWER

34LR/16RL 3000x60
04/22&05/23 2500x60

民間 civil

9999

060@16KT

29.70

RJTT 221900Z 06016KT 9999 -SHRA FEW013 BKN015 18/16 Q1006 BECMG 05012KT RMK 1CU013 7CU015 A2971

RJAA / Narita
VMC

RJTT_APP

TOWER

34L/16R 4000x60
34R/16L 2500x60

民間 civil

9999

070@7KT

29.73

RJAA 221900Z AUTO 07007KT 050V120 9999 -RA SCT043 OVC044 //////TCU 14/13 Q1007 NOSIG RMK A2974 TCU 5KM SE MOV E

RJTL / Shimofusa
VMC

RJTT_APP

TOWER

19/01 2250x45

自衛隊 military

9999

060@7KT

29.70

RJTL 221824Z 06007KT 9999 -SHRA FEW010 BKN020 15/14 Q1006 RMK 1ST010 7CU020 A2973

RJTE / Tateyama

RJTT_APP

TOWER

09/27 300x45

自衛隊 military

過去5時間に発表されたMETARがありません。

RJTO / Oshima

NO RADAR

RADIO

03/21 1800x45

民間 civil

過去5時間に発表されたMETARがありません。

RJTK / Kisarazu

NO RADAR

TOWER

02/20 1830x45

自衛隊 military

過去5時間に発表されたMETARがありません。

RJAN / Niijima

NO RADAR

REMOTE

11/29 800x25

自衛隊 military

過去5時間に発表されたMETARがありません。

RJAZ / Kozushima

NO RADAR

REMOTE

11/29 800x25

民間 civil

過去5時間に発表されたMETARがありません。

RJTH / Hachijojima

NO RADAR

RADIO

26/08 2000x45

民間 civil

過去5時間に発表されたMETARがありません。

RJTF / Chofu

NO RADAR

Flight Service

35/17 800x30

民間 civil

過去5時間に発表されたMETARがありません。

RJTQ / Miyake

NO RADAR

REMOTE

02/20 1200x30

民間 civil

過去5時間に発表されたMETARがありません。

RJTC / Tachikawa

NO RADAR

TOWER

01/19 900x45

自衛隊 military

過去5時間に発表されたMETARがありません。

RJTA / Atsugi

NO RADAR

TOWER

01/19 2438x45

自衛隊 military

過去5時間に発表されたMETARがありません。

RJTU / Utsunomiya

RJTY_APP

TOWER

01/19 1700x45

自衛隊 military

過去5時間に発表されたMETARがありません。

RJTJ / Iruma

RJTY_APP

TOWER

17/35 2000x45

自衛隊 military

過去5時間に発表されたMETARがありません。

RJTY / Yokota
VMC

RJTY_APP

TOWER

18/36 3353x60

自衛隊 military

9999

030@8KT

29.76

RJTY 221901Z AUTO 03008KT 10SM SCT009 OVC014 15/14 A2976 RMK AO2 RAE1856DZB1856E01 CIG 008V014 SLP079 $

RJAF / Matsumoto

NO RADAR

RADIO

18/36 2000x45

民間 civil

過去5時間に発表されたMETARがありません。

RJNS / Shizuoka

NO RADAR

RADIO

30/12 2500x60

民間 civil

過去5時間に発表されたMETARがありません。

RJNY / Yaizu-Shizuhama
VMC

NO RADAR

TOWER

27/09 1500x45

自衛隊 military

9999

240@6KT

29.70

RJNY 221735Z 24006KT 9999 FEW020 BKN080 BKN/// 18/16 Q1006 RMK 1CU020 5AC080 A2972

RJNH / Hamamatsu

RJNH_APP

TOWER

09/27 2550x60

自衛隊 military

過去5時間に発表されたMETARがありません。

RJGG / Chubu
VMC

RJGG_APP

TOWER

36/18 3500x60

民間 civil

9999

280@10KT

29.73

RJGG 221900Z AUTO 28010KT 9999 NCD 20/16 Q1007 NOSIG

RJNA / Nagoya

RJGG_APP

TOWER

34/16 2740x45

民間 civil

過去5時間に発表されたMETARがありません。

RJNG / Gifu
VMC

RJGG_APP

TOWER

28/10 2710x46

自衛隊 military

9999

010@6KT

29.70

RJNG 221433Z 01006KT 340V040 9999 -SHRA FEW020 FEW030CB BKN070 BKN100 18/14 Q1006 RETS RMK 2CU020 1CB030 5AC070 7AC100 A2973 CB 20KM E MOV SE

RJOE / Akeno

RJOE_APP

TOWER

13/31 500x30
04/22 500x30

自衛隊 military

過去5時間に発表されたMETARがありません。

RJNK / Komatsu
VMC

RJNK_APP

TOWER

06/24 2700x45

共用 dual

9999

230@4KT

29.79

RJNK 221900Z 23004KT 9999 FEW010 16/15 Q1009

RJNW / Noto

NO RADAR

RADIO

25/07 2000x45

民間 civil

過去5時間に発表されたMETARがありません。

RJNT / Toyama

NO RADAR

TOWER

20/02 2000x45

民間 civil

過去5時間に発表されたMETARがありません。

RJNF / Fukui

NO RADAR

REMOTE

18/36 1200x30

民間 civil

過去5時間に発表されたMETARがありません。

RJBD / Nanki-Shirahama

NO RADAR

RADIO

15/33 2000x45

民間 civil

過去5時間に発表されたMETARがありません。

RJOY / Yao

RJBB_APP

TOWER

27/09 1490x45
13/31 1200x30

民間 civil

過去5時間に発表されたMETARがありません。

RJOO / Osaka
VMC

RJBB_APP

TOWER

32L/14R 3000x60
32R/14L 1830x45

民間 civil

9999

360@3KT

29.76

RJOO 221900Z AUTO 36003KT 9999 NSC 17/16 Q1008 RMK A2979

RJOB / Okayama

RJBB_APP

TOWER

07/25 3000x45

民間 civil

過去5時間に発表されたMETARがありません。

RJBB / Kansai
VMC

RJBB_APP

TOWER

06R/24L 3500x60
06L/24R 4000x60

民間 civil

9999

360@5KT

29.79

RJBB 221900Z AUTO 36005KT 9999 NSC 18/17 Q1009 NOSIG

RJBE / Kobe

RJBB_APP

TOWER

09/27 2500x60

民間 civil

過去5時間に発表されたMETARがありません。

RJBT / Tajima

NO RADAR

REMOTE

01/19 1200x30

民間 civil

過去5時間に発表されたMETARがありません。

RJOR / Tottori

NO RADAR

RADIO

10/28 2000x45

民間 civil

過去5時間に発表されたMETARがありません。

RJNO / Oki

NO RADAR

REMOTE

07/25 2000x45

民間 civil

過去5時間に発表されたMETARがありません。

RJOH / Miho
VMC

RJOH_APP

TOWER

25/07 2500x45

共用 dual

9999

360@4KT

29.79

RJOH 221900Z 36004KT 330V030 9999 FEW050 18/16 Q1009

RJOC / Izumo

RJOH_APP

RADIO

07/25 2000x45

共用 dual

過去5時間に発表されたMETARがありません。

RJDG Fukuoka Control

RJOT / Takamatsu

RJBB_APP

TOWER

26/08 2500x60

民間 civil

過去5時間に発表されたMETARがありません。

RJOK / Kochi

RJBB_APP

TOWER

32/14 2500x45

民間 civil

過去5時間に発表されたMETARがありません。

RJOS / Tokushima
VMC

RJOS_APP

TOWER

29/11 2500x45

共用 dual

9999

360@5KT

29.76

RJOS 221900Z 36005KT 9999 FEW030 19/16 Q1008

RJOA / Hiroshima

RJOA_APP

TOWER

10/28 3000x60

民間 civil

過去5時間に発表されたMETARがありません。

RJBH / Hiroshimanishi

NO RADAR

Flight Service

04/22 1800x45

民間 civil

過去5時間に発表されたMETARがありません。

RJOI / Iwakuni
VMC

RJOI_APP

TOWER

02/20 2440x60

共用 dual

9999

010@6KT

29.80

RJOI 221856Z 01006KT 7SM CLR 18/13 A2980 RMK AO2 SLP089 T01830128

RJOM / Matsuyama

RJOI_APP

TOWER

14/32 2500x45

民間 civil

過去5時間に発表されたMETARがありません。

RJOZ / Ozuki

RJFZ_APP

TOWER

35/17 1201x61
12/30 899x46

自衛隊 military

過去5時間に発表されたMETARがありません。

RJOF / Hofu

RJFZ_APP

TOWER

30/12 1180x60
01/19 1480x45

自衛隊 military

過去5時間に発表されたMETARがありません。

RJDC / Yamaguchi-Ube

RJFZ_APP

RADIO

07/25 2500x45

民間 civil

過去5時間に発表されたMETARがありません。

RJFR / Kitakyushu
VMC

RJFZ_APP

TOWER

18/36 2500x60

民間 civil

9999

280@9KT

29.79

RJFR 221900Z 28009KT CAVOK 22/15 Q1009

RJFZ / Tsuiki

RJFZ_APP

TOWER

25/07 2399x46

自衛隊 military

過去5時間に発表されたMETARがありません。

RJOW / Iwami

NO RADAR

REMOTE

11/29 2000x45

民間 civil

過去5時間に発表されたMETARがありません。

RJDT / Tsushima

NO RADAR

REMOTE

32/14 1900x45

民間 civil

過去5時間に発表されたMETARがありません。

RJFF / Fukuoka
VMC

RJFF_APP

TOWER

16/34 2800x60

民間 civil

9999

130@2KT

29.82

RJFF 221900Z AUTO 13002KT 9999 NCD 18/13 Q1010 NOSIG RMK A2984

RJFS / Saga

RJFF_APP

RADIO

29/11 2000x45

民間 civil

過去5時間に発表されたMETARがありません。

RJFA / Ashiya

RJFF_APP

TOWER

12/30 1640x46

自衛隊 military

過去5時間に発表されたMETARがありません。

RJDB / Iki
VMC

RJFF_APP

REMOTE

20/02 1200x30

民間 civil

9999

000@2KT

29.82

RJDB 221900Z AUTO VRB02KT 9999 NCD 19/18 Q1010

RJFO / Oita

RJFO_APP

TOWER

01/19 3000x45

民間 civil

過去5時間に発表されたMETARがありません。

RJFU / Nagasaki

RJFU_APP

TOWER

32/14 3000x60

民間 civil

過去5時間に発表されたMETARがありません。

RJDU / Omura

RJFU_APP

TOWER

18/36 1200x30

自衛隊 military

過去5時間に発表されたMETARがありません。

RJFE / Fukue

NO RADAR

RADIO

03/21 2000x45

民間 civil

過去5時間に発表されたMETARがありません。

RJDO / Ojika

NO RADAR

REMOTE

03/21 800x30

民間 civil

過去5時間に発表されたMETARがありません。

RJDK / Kamigoto

NO RADAR

REMOTE

17/35 800x30

民間 civil

過去5時間に発表されたMETARがありません。

RJDA / Amakusa

NO RADAR

Flight Service

31/13 1000x30

民間 civil

過去5時間に発表されたMETARがありません。

RJFT / Kumamoto

RJFT_APP

TOWER

07/25 3000x45

民間 civil

過去5時間に発表されたMETARがありません。

RJFN / Nyutabaru

RJFM_APP

TOWER

28/10 2701x46

自衛隊 military

過去5時間に発表されたMETARがありません。

RJFM / Miyazaki

RJFM_APP

TOWER

27/09 2500x45

民間 civil

過去5時間に発表されたMETARがありません。

RJFK / Kagoshima

RJFK_APP

TOWER

34/16 3000x45

民間 civil

過去5時間に発表されたMETARがありません。

RJFY / Kanoya

RJFY_APP

TOWER

26L/08R 2250x45
26R/08L 1200x40

自衛隊 military

過去5時間に発表されたMETARがありません。

RJFG / Tanegashima

NO RADAR

RADIO

31/13 2000x45

民間 civil

過去5時間に発表されたMETARがありません。

RJFC / Yakushima

NO RADAR

REMOTE

14/32 1500x45

民間 civil

過去5時間に発表されたMETARがありません。

RJBG Kobe Control

ROAH / Naha
VMC

ROAH_APP

TOWER

36/18 3000x45

共用 dual

9999

080@8KT

29.82

ROAH 221900Z AUTO 08008KT 9999 NSC 24/20 Q1010 RMK A2982

RORA / Aguni

ROAH_APP

REMOTE

01/19 800x25

民間 civil

過去5時間に発表されたMETARがありません。

ROKJ / Kumejima

ROAH_APP

REMOTE

03/21 2000x45

民間 civil

過去5時間に発表されたMETARがありません。

RODN / Kadena
VMC

ROAH_APP

TOWER

05L/23R 3688x91
05R/23L 3688x61

自衛隊 military

9999

070@6KT

29.83

RODN 221911Z AUTO 07006KT 10SM -RA BKN075 BKN090 23/20 A2983 RMK AO2 RAE00DZB00E04RAB08E10RAB11 SLP107 $

ROTM / Futenma
VMC

ROAH_APP

TOWER

06/24 2740x45

自衛隊 military

9999

100@8KT

29.85

ROTM 221756Z 10008KT 9999 SCT020 BKN100 23/21 A2985 RMK SLP093 T02330206 10233 20233 58003

RORS / Shimojishima

RORS_APP

TOWER

17/35 3000x60

民間 civil

過去5時間に発表されたMETARがありません。

ROMY / Miyako

RORS_APP

TOWER

04/22 2000x45

民間 civil

過去5時間に発表されたMETARがありません。

ROIG / New Ishigaki
VMC

RORS_APP

TOWER

22/04 2000x45

民間 civil

9999

120@8KT

29.76

ROIG 221900Z AUTO 12008KT 9999 SCT017 BKN046 OVC050 25/22 Q1008

RORT / Tarama

RORS_APP

REMOTE

36/18 1500x45

民間 civil

過去5時間に発表されたMETARがありません。

RJKA / Amami
VMC

NO RADAR

RADIO

03/21 2000x45

民間 civil

9999

320@2KT

29.85

RJKA 221900Z AUTO 32002KT 9999 NSC 20/19 Q1011

RJKI / Kikai
VMC

NO RADAR

REMOTE

07/25 1200x30

民間 civil

9999

320@4KT

29.85

RJKI 221900Z AUTO 32004KT 280V340 9999 FEW014 BKN190 22/21 Q1011

RJKN / Tokunoshima

NO RADAR

REMOTE

19/01 2000x45

民間 civil

過去5時間に発表されたMETARがありません。

RJKB / Okierabu

NO RADAR

REMOTE

04/22 1350x45

民間 civil

過去5時間に発表されたMETARがありません。

RORY / Yoron
VMC

NO RADAR

REMOTE

32/14 1320x30

民間 civil

9999

100@4KT

29.82

RORY 221900Z AUTO 10004KT 9999 NSC 22/20 Q1010

RORK / Kitadaito
VMC

NO RADAR

REMOTE

03/21 1500x45

民間 civil

9999

030@7KT

29.82

RORK 221900Z AUTO 03007KT 9999 FEW022 22/18 Q1010

ROMD / Minami-daito
VMC

NO RADAR

REMOTE

02/20 1500x45

民間 civil

9999

040@6KT

29.82

ROMD 221900Z AUTO 04006KT 9999 FEW021 SCT210 22/19 Q1010

ROYN / Yonaguni
VMC

NO RADAR

REMOTE

26/08 2000x45

民間 civil

9999

000@2KT

29.73

ROYN 221900Z AUTO VRB02KT 9999 -RA FEW007 SCT011 BKN033 //////TCU 24/24 Q1007

RORH / Hateruma

NO RADAR

REMOTE

02/20 800x25

民間 civil

過去5時間に発表されたMETARがありません。

ROKR / Kerama

NO RADAR

REMOTE

02/20 800x25

民間 civil

過去5時間に発表されたMETARがありません。